Weather in Verkhniy Lyubazh

Russia / Kursk Oblast     52°12′51″N   35°50′19″E
temp.,
°C
wind,
m/s
gust,
m/s
humid.,
%
clouds,
%
prec.,
mm/h
press.,
hPa
HPBL,
m
3 august, tue
tue300:00+18sw511908 1.4 1008243
03:00+17w4109448 1.4 1009241
06:00+17w3796100 0.0 1010273
09:00+19wnw448278 0.0 1011685
12:00+21wnw4570100 0.1 10121047
15:00+23wnw3554100 0.1 10121684
18:00+21nw4763100 0.0 1012478
21:00+18nw22713 0.0 101420
4 august, wed
wed400:00+18nnw2571100 0.0 1015125
03:00+18nnw2365100 0.0 101570
06:00+17nw346692 0.0 1016107
09:00+20wnw33542 0.0 1017514
12:00+23wnw344299 0.0 10172042
15:00+24wnw4539100 0.0 10172487
18:00+22nnw33471 0.0 10171079
21:00+17nne22590 0.0 101811
5 august, thu
thu500:00+15ese2263100 0.0 101811
03:00+15sse226479 0.0 101812
06:00+15se346591 0.0 101863
09:00+20se465412 0.0 1018412
12:00+25sse5741100 0.0 10161293
15:00+27ssw5737100 0.0 10152374
18:00+25s364998 0.0 1013211
21:00+22se355198 0.0 101271
6 august, fri
fri600:00+21sse6144897 0.0 1012343
03:00+20sse61451100 0.0 1011322
06:00+20sse6175379 0.1 1011483
09:00+22sse61353100 0.3 1010506
12:00+26ssw5947100 0.0 1010891
15:00+30s683552 0.0 10081815
18:00+29se3643100 0.0 1006131
21:00+26se6124083 0.1 1006270
7 august, sat
sat700:00+19n38895 0.6 1008162
03:00+18n1194100 3.3 100814
06:00+18e3694100 2.1 1008130
09:00+22ese4669100 3.4 1008276
12:00+23ese3470100 0.6 1008257
15:00+23se4764100 0.6 1008412
18:00+25sse376563 0.6 1008622
21:00+21wsw238589 1.8 100940